Location: Unspecified
(0.0000°N, 0.0000°E)
Time: 07:26:30
(UTC+00:00)

CHUBUSAT 2 - Visible Passes

Search period start: 09 June 2023 00:00
Search period end: 19 June 2023 00:00
Orbit: 546 x 563 km, 31.0° (Epoch: 08 June)

Date Brightness Start Highest point End Pass type
(mag) Time Alt. Az. Time Alt. Az. Time Alt. Az.
16 Jun ? 19:18:06 10° S 19:18:20 11° S 19:18:20 11° S visible
17 Jun ? 19:12:05 10° SSW 19:14:35 20° SSE 19:14:35 20° SSE visible
18 Jun ? 19:06:26 10° SSW 19:10:17 32° SSE 19:11:05 30° SE visible
